Home > Weather > Sydney > Past weeks

Flag for Australia Past Weather in Sydney, New South Wales, Australia — Yesterday and Last 2 Weeks

Now
48 °F

Scattered showers. Broken clouds.


Feels Like: 42 °F
Forecast: 44 / 54 °F
Wind: 15 mph from West

Location: Sydney Airport

Current Time: Aug 26, 2016 at 8:18:48 AM

Latest Report: Aug 26, 2016 at 7:30 AM


Visibility: N/A

Pressure: 30.07 "Hg

Humidity: 62%

Dew Point: 36 °F

Location of SydneyLocation

Past Weather in Sydney — Graph

°F

Sydney Temperature Yesterday

Maximum temperature yesterday: 61 °F (at 1:00 PM)
Minimum temperature yesterday: 48 °F (at 2:30 AM)
Average temperature yesterday: 54 °F

High & Low Weather Summary for the Past Weeks

 TemperatureHumidityPressure
High75 °F (Aug 17, 1:00 PM)100% (Aug 24, 11:00 AM)30.48 "Hg (Aug 24, 11:00 AM)
Low45 °F (Aug 12, 5:30 AM)19% (Aug 12, 1:00 PM)29.68 "Hg (Aug 24, 5:30 PM)
Average58 °F59%30.10 "Hg
* Reported Aug 11 7:00 AM — Aug 26 7:00 AM, Sydney, Weather by CustomWeather, © 2016

Note: Actual official high and low records may vary slightly from our data, if they occured in-between our weather recording intervals... More about our weather records

Advertising

Sydney Weather History for the Previous 24 Hours

Scroll right to see more
 ConditionsComfort  
Time TempWeatherWind HumidityBarometerVisibility
7:00 AM
Fri, Aug 26
46 °FScattered showers. Partly sunny.14 mph66%30.07 "HgN/A
6:30 AM46 °FScattered showers. Broken clouds.14 mph71%30.04 "HgN/A
6:00 AM45 °FScattered showers. Scattered clouds.15 mph76%30.04 "HgN/A
5:30 AM46 °FPassing clouds.13 mph71%30.01 "HgN/A
5:00 AM45 °FPassing clouds.14 mph76%30.01 "HgN/A
4:30 AM46 °FPassing clouds.14 mph71%30.01 "HgN/A
4:00 AM45 °FPassing clouds.9 mph76%30.01 "HgN/A
3:30 AM46 °FPassing clouds.9 mph71%29.98 "HgN/A
3:00 AM46 °FPassing clouds.10 mph71%29.98 "HgN/A
2:30 AM48 °FPassing clouds.13 mph66%29.98 "HgN/A
2:00 AM48 °FClear.17 mph66%29.98 "Hg10 mi
1:30 AM48 °FCool.16 mph62%29.98 "HgN/A
1:00 AM50 °FCool.17 mph58%29.98 "HgN/A
12:30 AM50 °FClear.15 mph58%29.98 "Hg10 mi
12:00 AM50 °FClear.10 mph58%29.98 "Hg10 mi
11:30 PM
Thu, Aug 25
50 °FClear.10 mph54%29.98 "Hg10 mi
11:00 PM50 °FClear.8 mph54%29.98 "Hg10 mi
10:30 PM52 °FClear.12 mph50%29.95 "Hg10 mi
10:00 PM52 °FClear.15 mph50%29.95 "Hg10 mi
9:30 PM52 °FClear.14 mph54%29.95 "Hg10 mi
9:00 PM54 °FClear.17 mph47%29.95 "Hg10 mi
8:30 PM55 °FClear.10 mph59%29.95 "Hg10 mi
8:00 PM55 °FClear.7 mph63%29.92 "Hg10 mi
7:30 PM57 °FPassing clouds.5 mph59%29.92 "HgN/A
7:00 PM57 °FPassing clouds.5 mph55%29.92 "HgN/A
6:00 PM57 °FPassing clouds.7 mph63%29.89 "HgN/A
5:30 PM57 °FPassing clouds.9 mph63%29.86 "HgN/A
5:00 PM57 °FPassing clouds.8 mph59%29.86 "HgN/A
4:30 PM59 °FSunny.9 mph48%29.86 "Hg10 mi
4:00 PM59 °FSunny.12 mph51%29.83 "Hg10 mi
3:30 PM59 °FScattered clouds.12 mph51%29.83 "HgN/A
3:00 PM59 °FSunny.14 mph51%29.83 "Hg10 mi
2:30 PM59 °FSunny.16 mph51%29.83 "Hg10 mi
2:00 PM59 °FSunny.15 mph51%29.83 "Hg10 mi
1:30 PM59 °FScattered clouds.17 mph55%29.83 "HgN/A
1:00 PM61 °FScattered clouds.12 mph42%29.83 "HgN/A
12:30 PM59 °FScattered clouds.14 mph45%29.83 "HgN/A
12:00 PM59 °FPartly sunny.17 mph42%29.83 "HgN/A
11:30 AM59 °FPartly sunny.17 mph48%29.83 "HgN/A
11:00 AM59 °FBroken clouds.17 mph45%29.83 "HgN/A
10:00 AM54 °FScattered showers. Partly sunny.15 mph67%29.83 "HgN/A
9:00 AM52 °FScattered showers. Partly sunny.18 mph72%29.83 "HgN/A
8:30 AM52 °FScattered showers. Broken clouds.17 mph72%29.83 "HgN/A
8:00 AM50 °FScattered showers. Broken clouds.16 mph76%29.83 "HgN/A
Weather by CustomWeather, © 2016

See weather overviewHow to use our weather pages